Simultaneous Nadir Overpasses (SNOs) Predictions

Prediction of SNOs between AQUA and NPP Satellite Orbit:

Table of predicted SNOs for the next 14.0 days since TLE Epoch: 1/9/2012
Index Date (AQUA) Time (AQUA) Lat,Lon (AQUA) SZA (AQUA ) Date (NPP) Time (NPP) Lat,Lon (NPP) SZA (NPP ) Distance(km) Time Diff (sec)
1 01/11/2012 14:04:56 75.88,-152.62 119.06 01/11/2012 14:04:10 75.88,-152.62 119.10 0.10 46
2 01/11/2012 14:54:04 -76.82, 18.11 62.01 01/11/2012 14:54:35 -76.82, 18.07 62.03 0.94 31
3 01/14/2012 06:21:18 76.21, -35.72 118.32 01/14/2012 06:20:53 76.21, -35.73 118.35 0.37 25
4 01/14/2012 07:10:27 -77.09, 134.98 62.70 01/14/2012 07:11:19 -77.09, 134.95 62.73 0.82 52
5 01/16/2012 21:53:41 -58.51,-111.08 45.11 01/16/2012 21:52:28 -58.75,-112.44 44.63 83.09 73
6 01/16/2012 22:37:34 76.74, 81.96 117.29 01/16/2012 22:37:30 76.75, 82.06 117.27 2.83 4
7 01/16/2012 23:26:44 -77.55,-107.29 63.68 01/16/2012 23:27:57 -77.56,-107.18 63.76 2.85 73
8 01/19/2012 14:05:00 -75.58, 26.50 61.88 01/19/2012 14:04:02 -75.57, 26.42 61.80 2.44 58
9 01/19/2012 14:54:03 76.67,-162.41 116.90 01/19/2012 14:54:22 76.66,-162.50 116.90 2.31 19
10 01/22/2012 06:21:12 -76.31, 144.62 63.21 01/22/2012 06:20:36 -76.31, 144.68 63.20 1.61 36




NCC Satellite Simultaneous Nadir Overpasses (SNOs) Prediction Service
